SL-8 DEB, 1618

Orbit data source: Space-Track

SL-8 DEB, 1618 is space debris in LEO originally from a launch on Sat, 18 Sep 1965 UTC launched from the Tyuratam Missile And Space Complex (TTMTR). Debris objects in space refer to the collection of defunct objects orbiting the Earth. Examples of debris include non-operational satellites, rocket bodies, and fragments generated from explosions, collisions, or faulty payload assembly.

Loading next visibility...
Identifier
1618, 1965-073K
Orbit
LEO
Country
Flag of CISCIS
Related business
Manufacturer
Unknown
Mission
Spacecraft
Bus & Motor
Unknown
Mass
Unknown
Launch date (UTC)
1965-09-18 (60 years ago)
Launch vehicle
Unknown
Launch site
Tyuratam Missile And Space Complex (TTMTR)
Object type
Payload
Rocket body
Debris
Shape & HBR
Unknown shape, 0.2 m
Radar Cross Section
Medium (>0.1 m² and <1 m²)

Expand to show TLE details & history
Last TLE update: 22 hours ago

TLE from 22 hours ago
0 SL-8 DEB
1 01618U 65073K   25286.41131312  .00000061  00000-0  11726-2 0  9992
2 01618  56.1769  69.0770 0222649 305.0520  85.9803 12.30332607692749
Epoch: 2025-10-13T09:52Z
TLE epoch observation values (Epoch: 2025-10-13T09:52:17.453Z)
Latitude
27.42148°
Longitude
-80.97135°
Altitude
1,540.952 km
Speed
7.103 km/s
True Right ascension
05h 57m 15s
True Declination
27° 17' 42"
Sunlit
Object was in daylight at epoch
Visualization orbit readout
Latitude
Unknown
Longitude
Unknown
Altitude
Unknown
Speed
Unknown
Apparent Right ascension
Unknown
Apparent Declination
Unknown
Sunlit
N/A
Visualization observer readout
Local Sidereal Time
02:42:37
Azimuth
Unknown
Elevation
Unknown
Doppler factor
Unknown
Orbital elements
Apogee altitude
1,724.128 km
Perigee altitude
1,371.194 km
Semi-major axis
7,925.798 km
Eccentricity
0.02226
Inclination
56.1769°
RAAN
69.077°
Arg. of periapsis
305.052°
True anomaly
88.52953°
Mean anomaly
85.9803°
Eccentric anomaly
87.25452°
Mean motion
3.07595 °/min
Orbital period
117.04 mins
BSTAR
0.0011726
Loading maneuver chart data...
Computing Atmospheric mass density...
Loading historical data...
Loading historical data...
Loading historical data...
Loading historical data...
Loading historical data...
Loading historical data...
Loading historical data...

Documentation

Showing up to 5 results
|